ABB858 EBBR-VHHH

Flight info

Callsign ABB858
Flight time N/A
Altitude 33000
Route SOPOK Y863 ROPUV L607 EMGOD DCT BOMBI DCT BARSU DCT DEXIT DCT ADLET DCT PESAT DCT OGVUN DCT TEGRI DCT UDROS UM859 KARDE UN644 ROLIN DCT FOQUS DCT DISKA M737 VERCA M747 SUBUT T916 LEYLA N161 GASBI/K0900F330 N161 SARIN/K0900S1005 A368 FKG W192 ESDEX W191 DNC W565 BIGUX B330 KWE W181 DUDIT A599 POU R473 SIERA
Aircraft B77L/H-SDE1E2E3FGHIJ2J3J4J5M1RWXY/LB1D1

Departure

Time 2026-05-08 06:22
Airport Brussels Airport (EBBR)

Arrival

Time N/A
Airport Hong Kong International Airport (VHHH)
Time Latitude Longitude Altitude Speed Heading
2026-05-08 06:22 50.91896 4.58679 3289 ft 187 kts 63°
2026-05-08 06:22 50.92526 4.60593 3562 ft 207 kts 63°
2026-05-08 06:23 50.93223 4.62722 3830 ft 226 kts 63°
2026-05-08 06:23 50.93930 4.65069 4190 ft 243 kts 71°
2026-05-08 06:23 50.94441 4.67675 4800 ft 253 kts 75°
2026-05-08 06:23 50.94935 4.70400 5460 ft 261 kts 74°
2026-05-08 06:24 50.95453 4.73195 6213 ft 267 kts 74°
2026-05-08 06:24 50.95728 4.76096 6849 ft 270 kts 97°
2026-05-08 06:24 50.95052 4.78858 7521 ft 273 kts 128°
2026-05-08 06:24 50.93706 4.80904 8229 ft 273 kts 142°
2026-05-08 06:25 50.92215 4.82836 8900 ft 280 kts 141°
2026-05-08 06:25 50.90704 4.84815 9680 ft 283 kts 141°
2026-05-08 06:25 50.89174 4.86807 10385 ft 286 kts 144°
2026-05-08 06:25 50.87371 4.88216 10646 ft 300 kts 171°
2026-05-08 06:26 50.85235 4.88536 10826 ft 318 kts 176°
2026-05-08 06:26 50.82944 4.88830 11023 ft 342 kts 175°
2026-05-08 06:26 50.80494 4.89185 11309 ft 362 kts 175°
2026-05-08 06:26 50.77943 4.89572 11893 ft 373 kts 175°
2026-05-08 06:27 50.75336 4.89977 12612 ft 380 kts 175°
2026-05-08 06:27 50.72726 4.90385 13428 ft 384 kts 175°
2026-05-08 06:27 50.70064 4.90899 14120 ft 385 kts 168°
2026-05-08 06:27 50.67580 4.92615 14624 ft 397 kts 145°
2026-05-08 06:28 50.65635 4.95754 15350 ft 403 kts 126°
2026-05-08 06:28 50.64378 4.99714 16067 ft 405 kts 109°
2026-05-08 06:28 50.63526 5.03996 16587 ft 414 kts 108°
2026-05-08 06:28 50.62681 5.08357 17246 ft 419 kts 108°
2026-05-08 06:29 50.61816 5.12753 17977 ft 421 kts 108°
2026-05-08 06:29 50.60938 5.17109 18631 ft 425 kts 109°
2026-05-08 06:29 50.60021 5.21557 19231 ft 429 kts 109°
2026-05-08 06:29 50.59086 5.26034 19812 ft 430 kts 110°
2026-05-08 06:30 50.57730 5.30206 20168 ft 432 kts 130°
2026-05-08 06:30 50.55568 5.33438 20579 ft 430 kts 142°
2026-05-08 06:30 50.53275 5.36531 21017 ft 437 kts 140°
2026-05-08 06:30 50.51017 5.39756 21676 ft 439 kts 139°
2026-05-08 06:31 50.48781 5.43031 22358 ft 440 kts 139°
2026-05-08 06:31 50.46545 5.46333 22941 ft 443 kts 139°
2026-05-08 06:31 50.44280 5.49678 23487 ft 448 kts 139°
2026-05-08 06:31 50.41994 5.53043 23968 ft 452 kts 139°
2026-05-08 06:32 50.39690 5.56423 24440 ft 455 kts 139°
2026-05-08 06:32 50.37366 5.59823 24884 ft 459 kts 139°
2026-05-08 06:32 50.35024 5.63244 25367 ft 462 kts 139°
2026-05-08 06:32 50.32669 5.66680 25863 ft 464 kts 139°
2026-05-08 06:33 50.30327 5.70093 26341 ft 466 kts 139°
2026-05-08 06:33 50.27944 5.73557 26780 ft 469 kts 139°
2026-05-08 06:33 50.25731 5.77310 27095 ft 474 kts 126°
2026-05-08 06:33 50.24295 5.81979 27405 ft 483 kts 106°
2026-05-08 06:34 50.23567 5.87096 27742 ft 484 kts 103°
2026-05-08 06:34 50.22800 5.92242 28086 ft 488 kts 105°
2026-05-08 06:34 50.21949 5.97379 28529 ft 490 kts 106°
2026-05-08 06:34 50.21060 6.02535 28914 ft 493 kts 107°
2026-05-08 06:35 50.20166 6.07721 29282 ft 496 kts 106°
2026-05-08 06:35 50.19308 6.12955 29655 ft 499 kts 103°
2026-05-08 06:35 50.18774 6.18321 30008 ft 502 kts 96°
2026-05-08 06:35 50.18579 6.23765 30416 ft 503 kts 91°
2026-05-08 06:36 50.18709 6.29214 30833 ft 503 kts 85°
2026-05-08 06:36 50.19079 6.34643 31216 ft 503 kts 84°
2026-05-08 06:36 50.19465 6.40070 31562 ft 504 kts 84°
2026-05-08 06:36 50.19837 6.45508 31895 ft 504 kts 85°
2026-05-08 06:37 50.20190 6.50974 32204 ft 506 kts 85°
2026-05-08 06:37 50.20527 6.56442 32552 ft 505 kts 85°
2026-05-08 06:37 50.20853 6.61829 32908 ft 505 kts 85°
2026-05-08 06:37 50.21185 6.67377 33046 ft 509 kts 85°
2026-05-08 06:38 50.21827 6.78329 33088 ft 508 kts 86°
2026-05-08 06:38 50.22074 6.89260 33093 ft 501 kts 95°
2026-05-08 06:39 50.21436 7.00080 33107 ft 500 kts 96°
2026-05-08 06:39 50.20806 7.10921 33109 ft 502 kts 96°
2026-05-08 06:40 50.20212 7.21805 33103 ft 503 kts 96°
2026-05-08 06:40 50.19612 7.32708 33103 ft 504 kts 96°
2026-05-08 06:41 50.18782 7.43588 33095 ft 504 kts 99°
2026-05-08 06:41 50.17738 7.54431 33111 ft 505 kts 99°
2026-05-08 06:42 50.16713 7.65197 33091 ft 506 kts 99°
2026-05-08 06:42 50.15713 7.76064 33110 ft 506 kts 99°
2026-05-08 06:43 50.14713 7.86933 33102 ft 506 kts 99°
2026-05-08 06:43 50.13702 7.97800 33121 ft 506 kts 99°
2026-05-08 06:44 50.12679 8.08667 33119 ft 506 kts 99°
2026-05-08 06:44 50.11820 8.17712 33123 ft 506 kts 99°
2026-05-08 06:45 50.10608 8.30327 33113 ft 506 kts 99°
2026-05-08 06:45 50.09727 8.39404 33124 ft 506 kts 99°
2026-05-08 06:46 50.08668 8.50226 33129 ft 506 kts 99°
2026-05-08 06:46 50.07597 8.61055 33131 ft 506 kts 99°
2026-05-08 06:47 50.06517 8.71883 33131 ft 506 kts 100°
2026-05-08 06:47 50.05437 8.82706 33130 ft 506 kts 99°
2026-05-08 06:48 50.04558 8.93507 33128 ft 506 kts 97°
2026-05-08 06:48 50.03745 9.04388 33130 ft 506 kts 97°
2026-05-08 06:49 50.02910 9.15097 33123 ft 506 kts 98°
2026-05-08 06:49 50.02026 9.25974 33122 ft 507 kts 98°
2026-05-08 06:50 50.01127 9.36845 33117 ft 507 kts 98°
2026-05-08 06:50 50.00218 9.47721 33120 ft 507 kts 98°
2026-05-08 06:51 49.99301 9.58588 33102 ft 507 kts 98°
2026-05-08 06:51 49.98374 9.69454 33103 ft 507 kts 98°
2026-05-08 06:52 49.97443 9.80235 33110 ft 507 kts 98°
2026-05-08 06:52 49.96495 9.91101 33117 ft 507 kts 98°
2026-05-08 06:53 49.95535 10.01975 33113 ft 507 kts 98°
2026-05-08 06:53 49.94567 10.12830 33123 ft 507 kts 98°
2026-05-08 06:54 49.93591 10.23680 33121 ft 507 kts 99°
2026-05-08 06:54 49.92498 10.34471 33116 ft 506 kts 104°
2026-05-08 06:55 49.90321 10.44753 33126 ft 503 kts 115°
2026-05-08 06:55 49.87172 10.54437 33125 ft 502 kts 119°
2026-05-08 06:56 49.83937 10.64056 33127 ft 503 kts 119°
2026-05-08 06:56 49.80717 10.73711 33113 ft 504 kts 119°
2026-05-08 06:57 49.77528 10.83309 33115 ft 505 kts 119°
2026-05-08 06:57 49.74309 10.92978 33105 ft 505 kts 119°
2026-05-08 06:58 49.71082 11.02632 33122 ft 505 kts 119°
2026-05-08 06:58 49.67845 11.12273 33118 ft 506 kts 119°
2026-05-08 06:59 49.64596 11.21911 33106 ft 506 kts 120°
2026-05-08 06:59 49.61358 11.31478 33087 ft 506 kts 120°
2026-05-08 07:00 49.58084 11.41118 33095 ft 507 kts 120°
2026-05-08 07:00 49.54796 11.50762 33095 ft 508 kts 120°
2026-05-08 07:01 49.51502 11.60385 33096 ft 508 kts 120°
2026-05-08 07:01 49.48214 11.69956 33099 ft 509 kts 120°
2026-05-08 07:02 49.44894 11.79585 33099 ft 509 kts 120°
2026-05-08 07:02 49.41566 11.89203 33104 ft 509 kts 120°
2026-05-08 07:03 49.38252 11.98740 33099 ft 509 kts 120°
2026-05-08 07:03 49.34916 12.08309 33097 ft 509 kts 120°
2026-05-08 07:04 49.31567 12.17878 33086 ft 508 kts 120°
2026-05-08 07:04 49.28213 12.27424 33095 ft 509 kts 121°
2026-05-08 07:05 49.24848 12.36965 33093 ft 510 kts 121°
2026-05-08 07:05 49.21469 12.46513 33096 ft 510 kts 121°
2026-05-08 07:06 49.18080 12.56055 33111 ft 511 kts 121°
2026-05-08 07:06 49.14676 12.65601 33084 ft 511 kts 121°
2026-05-08 07:07 49.11262 12.75141 33085 ft 512 kts 121°
2026-05-08 07:07 49.07840 12.84670 33077 ft 512 kts 121°
2026-05-08 07:08 49.04429 12.94134 33088 ft 512 kts 121°
2026-05-08 07:08 49.00984 13.03653 33100 ft 512 kts 121°
2026-05-08 07:09 48.97533 13.13159 33092 ft 512 kts 121°
2026-05-08 07:09 48.94078 13.22641 33087 ft 511 kts 121°
2026-05-08 07:10 48.90619 13.32100 33081 ft 512 kts 122°
2026-05-08 07:10 48.87172 13.41490 33093 ft 512 kts 122°
2026-05-08 07:11 48.83696 13.50926 33087 ft 512 kts 122°
2026-05-08 07:11 48.80208 13.60364 33089 ft 512 kts 122°
2026-05-08 07:12 48.76712 13.69792 33080 ft 513 kts 122°
2026-05-08 07:12 48.73446 13.79431 33096 ft 514 kts 118°
2026-05-08 07:13 48.70280 13.89187 33089 ft 516 kts 118°
2026-05-08 07:13 48.67109 13.98870 33085 ft 516 kts 119°
2026-05-08 07:14 48.63896 14.08583 33083 ft 516 kts 119°
2026-05-08 07:14 48.60668 14.18295 33088 ft 516 kts 119°
2026-05-08 07:15 48.57439 14.27988 33090 ft 516 kts 120°
2026-05-08 07:15 48.54326 14.37783 33090 ft 517 kts 116°
2026-05-08 07:16 48.51458 14.47744 33083 ft 518 kts 116°
2026-05-08 07:16 48.48588 14.57710 33093 ft 518 kts 116°
2026-05-08 07:17 48.45665 14.67644 33097 ft 519 kts 116°
2026-05-08 07:17 48.42712 14.77550 33092 ft 519 kts 117°
2026-05-08 07:18 48.39759 14.87400 33090 ft 519 kts 117°
2026-05-08 07:18 48.36781 14.97301 33090 ft 519 kts 117°
2026-05-08 07:19 48.33799 15.07192 33080 ft 519 kts 117°
2026-05-08 07:19 48.30807 15.17072 33079 ft 519 kts 117°
2026-05-08 07:20 48.27806 15.26949 33078 ft 519 kts 117°
2026-05-08 07:20 48.24802 15.36794 33089 ft 519 kts 117°
2026-05-08 07:21 48.21807 15.46564 33100 ft 519 kts 117°
2026-05-08 07:21 48.18782 15.56396 33094 ft 519 kts 117°
2026-05-08 07:22 48.15748 15.66217 33102 ft 519 kts 117°
2026-05-08 07:22 48.12704 15.76033 33107 ft 520 kts 118°
2026-05-08 07:23 48.09648 15.85851 33100 ft 521 kts 118°
2026-05-08 07:23 48.06580 15.95668 33100 ft 521 kts 118°
2026-05-08 07:24 48.03503 16.05476 33103 ft 521 kts 118°
2026-05-08 07:24 48.00415 16.15281 33100 ft 521 kts 118°
2026-05-08 07:25 47.97321 16.25065 33107 ft 521 kts 118°
2026-05-08 07:26 47.92684 16.39660 33108 ft 521 kts 118°
2026-05-08 07:26 47.89567 16.49424 33089 ft 522 kts 118°
2026-05-08 07:27 47.86439 16.59184 33090 ft 522 kts 118°
2026-05-08 07:27 47.83306 16.68922 33097 ft 522 kts 119°
2026-05-08 07:28 47.80161 16.78662 33096 ft 522 kts 119°
2026-05-08 07:28 47.77009 16.88386 33094 ft 522 kts 119°
2026-05-08 07:29 47.73851 16.98097 33092 ft 522 kts 119°
2026-05-08 07:29 47.71195 17.06146 33076 ft 521 kts 121°
2026-05-08 07:30 47.67540 17.15394 33086 ft 519 kts 126°
2026-05-08 07:30 47.63737 17.24488 33087 ft 519 kts 126°
2026-05-08 07:31 47.59949 17.33641 33081 ft 520 kts 125°
2026-05-08 07:31 47.56183 17.42828 33066 ft 521 kts 125°
2026-05-08 07:32 47.52417 17.52004 33084 ft 522 kts 125°
2026-05-08 07:32 47.48633 17.61183 33075 ft 522 kts 125°
2026-05-08 07:33 47.44862 17.70294 33080 ft 523 kts 125°
2026-05-08 07:33 47.41058 17.79457 33067 ft 523 kts 126°
2026-05-08 07:34 47.37381 17.88736 33073 ft 526 kts 120°
2026-05-08 07:34 47.34237 17.98482 33078 ft 527 kts 118°
2026-05-08 07:35 47.31101 18.08249 33072 ft 527 kts 119°
2026-05-08 07:35 47.27931 18.17984 33068 ft 527 kts 119°
2026-05-08 07:36 47.24733 18.27704 33070 ft 527 kts 119°
2026-05-08 07:36 47.21548 18.37339 33062 ft 527 kts 120°
2026-05-08 07:37 47.18333 18.47033 33046 ft 527 kts 120°
2026-05-08 07:37 47.15111 18.56717 33060 ft 527 kts 120°
2026-05-08 07:38 47.11880 18.66392 33065 ft 527 kts 120°
2026-05-08 07:38 47.08643 18.76050 33065 ft 527 kts 120°
2026-05-08 07:39 47.05396 18.85703 33054 ft 527 kts 120°
2026-05-08 07:39 47.02162 18.95281 33062 ft 527 kts 120°
2026-05-08 07:40 46.98897 19.04912 33062 ft 527 kts 120°
2026-05-08 07:40 46.95622 19.14539 33064 ft 528 kts 120°
2026-05-08 07:41 46.92344 19.24141 33053 ft 527 kts 121°
2026-05-08 07:41 46.89055 19.33739 33068 ft 527 kts 121°
2026-05-08 07:42 46.85763 19.43309 33075 ft 527 kts 121°
2026-05-08 07:42 46.82479 19.52822 33056 ft 527 kts 121°
2026-05-08 07:43 46.79175 19.62359 33077 ft 526 kts 121°
2026-05-08 07:43 46.75864 19.71882 33079 ft 526 kts 121°
2026-05-08 07:44 46.72545 19.81391 33061 ft 526 kts 121°
2026-05-08 07:44 46.69226 19.90871 33065 ft 525 kts 121°
2026-05-08 07:45 46.65901 20.00331 33035 ft 524 kts 122°
2026-05-08 07:45 46.62570 20.09772 33064 ft 524 kts 122°
2026-05-08 07:46 46.59229 20.19206 33065 ft 525 kts 122°
2026-05-08 07:46 46.55874 20.28650 33066 ft 526 kts 122°
2026-05-08 07:47 46.52503 20.38107 33067 ft 527 kts 122°
2026-05-08 07:47 46.49122 20.47557 33068 ft 527 kts 122°
2026-05-08 07:48 46.45756 20.56935 33038 ft 527 kts 122°
2026-05-08 07:48 46.42362 20.66355 33052 ft 526 kts 122°
2026-05-08 07:49 46.38964 20.75751 33060 ft 526 kts 122°
2026-05-08 07:49 46.35562 20.85129 33062 ft 526 kts 122°
2026-05-08 07:50 46.32156 20.94486 33066 ft 525 kts 122°
2026-05-08 07:50 46.28750 21.03813 33073 ft 524 kts 122°
2026-05-08 07:51 46.25413 21.13182 33064 ft 526 kts 118°
2026-05-08 07:51 46.22435 21.22764 33046 ft 526 kts 118°
2026-05-08 07:52 46.19469 21.32403 33065 ft 524 kts 118°
2026-05-08 07:52 46.16488 21.42000 33071 ft 523 kts 118°
2026-05-08 07:53 46.13497 21.51538 33070 ft 521 kts 118°
2026-05-08 07:53 46.10503 21.61034 33055 ft 519 kts 118°
2026-05-08 07:54 46.07514 21.70481 33054 ft 517 kts 118°
2026-05-08 07:54 46.04526 21.79893 33056 ft 516 kts 118°
2026-05-08 07:55 46.01538 21.89275 33051 ft 515 kts 119°
2026-05-08 07:55 45.98549 21.98620 33065 ft 514 kts 119°
2026-05-08 07:56 45.95564 22.07922 33047 ft 516 kts 119°
2026-05-08 07:56 45.92546 22.17293 33063 ft 515 kts 119°
2026-05-08 07:57 45.89529 22.26631 33042 ft 515 kts 119°
2026-05-08 07:57 45.86504 22.35957 33060 ft 516 kts 119°
2026-05-08 07:58 45.83466 22.45288 33059 ft 516 kts 119°
2026-05-08 07:58 45.80438 22.54556 33071 ft 516 kts 119°
2026-05-08 07:59 45.77383 22.63880 33052 ft 516 kts 119°
2026-05-08 07:59 45.74321 22.73183 33051 ft 516 kts 119°
2026-05-08 08:00 45.71254 22.82470 33057 ft 516 kts 119°
2026-05-08 08:00 45.68178 22.91756 33052 ft 516 kts 119°
2026-05-08 08:01 45.65092 23.01034 33064 ft 516 kts 119°
2026-05-08 08:01 45.62021 23.10233 33056 ft 516 kts 119°
2026-05-08 08:02 45.58906 23.19533 33057 ft 516 kts 119°
2026-05-08 08:02 45.55828 23.28699 33051 ft 515 kts 119°
2026-05-08 08:03 45.52723 23.37907 33061 ft 514 kts 119°
2026-05-08 08:03 45.49617 23.47082 33062 ft 513 kts 119°
2026-05-08 08:04 45.46503 23.56238 33065 ft 512 kts 119°
2026-05-08 08:04 45.43390 23.65383 33094 ft 513 kts 119°
2026-05-08 08:05 45.40266 23.74523 33081 ft 513 kts 119°
2026-05-08 08:05 45.37128 23.83667 33061 ft 514 kts 119°
2026-05-08 08:06 45.34002 23.92745 33058 ft 514 kts 119°
2026-05-08 08:06 45.30853 24.01865 33084 ft 513 kts 119°
2026-05-08 08:07 45.27692 24.10970 33077 ft 513 kts 119°
2026-05-08 08:07 45.24529 24.20069 33074 ft 514 kts 119°
2026-05-08 08:08 45.21376 24.29109 33066 ft 515 kts 119°
2026-05-08 08:08 45.18192 24.38198 33068 ft 515 kts 119°
2026-05-08 08:09 45.14997 24.47294 33066 ft 515 kts 119°
2026-05-08 08:09 45.11791 24.56386 33051 ft 515 kts 119°
2026-05-08 08:10 45.08583 24.65455 33065 ft 515 kts 119°
2026-05-08 08:10 45.05364 24.74523 33067 ft 516 kts 119°
2026-05-08 08:11 45.02157 24.83528 33060 ft 515 kts 119°
2026-05-08 08:11 44.98927 24.92567 33062 ft 515 kts 119°
2026-05-08 08:12 44.95690 25.01594 33062 ft 515 kts 119°
2026-05-08 08:12 44.92442 25.10625 33068 ft 515 kts 119°
2026-05-08 08:13 44.89212 25.19575 33047 ft 515 kts 119°
2026-05-08 08:13 44.85958 25.28563 33064 ft 515 kts 119°
2026-05-08 08:14 44.82693 25.37550 33067 ft 515 kts 119°
2026-05-08 08:14 44.79420 25.46527 33067 ft 515 kts 119°
2026-05-08 08:15 44.76141 25.55494 33058 ft 515 kts 119°
2026-05-08 08:15 44.73410 25.62939 33063 ft 516 kts 119°
2026-05-08 08:16 44.70109 25.71914 33067 ft 516 kts 119°
2026-05-08 08:16 44.66259 25.82340 33054 ft 516 kts 119°
2026-05-08 08:17 44.63483 25.89837 33068 ft 516 kts 119°
2026-05-08 08:17 44.60184 25.98718 33077 ft 516 kts 119°
2026-05-08 08:18 44.56854 26.07653 33076 ft 516 kts 119°
2026-05-08 08:18 44.53514 26.16585 33077 ft 517 kts 119°
2026-05-08 08:19 44.50161 26.25522 33064 ft 517 kts 119°
2026-05-08 08:19 44.46831 26.34374 33063 ft 517 kts 119°
2026-05-08 08:20 44.43465 26.43289 33055 ft 517 kts 119°
2026-05-08 08:20 44.40095 26.52188 33070 ft 517 kts 119°
2026-05-08 08:21 44.36723 26.61063 33065 ft 517 kts 119°
2026-05-08 08:21 44.33344 26.69927 33069 ft 516 kts 119°
2026-05-08 08:22 44.29961 26.78776 33068 ft 516 kts 120°
2026-05-08 08:22 44.26587 26.87572 33069 ft 516 kts 120°
2026-05-08 08:23 44.23192 26.96393 33068 ft 516 kts 120°
2026-05-08 08:23 44.19789 27.05212 33065 ft 516 kts 120°
2026-05-08 08:24 44.16383 27.14006 33077 ft 516 kts 120°
2026-05-08 08:24 44.12965 27.22805 33073 ft 516 kts 120°
2026-05-08 08:25 44.09559 27.31547 33070 ft 516 kts 120°
2026-05-08 08:25 44.06125 27.40332 33076 ft 517 kts 120°
2026-05-08 08:26 44.02682 27.49114 33081 ft 518 kts 120°
2026-05-08 08:26 43.99228 27.57894 33084 ft 518 kts 120°